Find Starlink 34301

NORAD ID: 64349 Int'l Des: 2025-126 Owner: SPXS Country: US Constellation: starlink operational
LEOCIRCULAR

当前视图

正在加载3D地球...

About Starlink 34301

Starlink 34301 (NORAD 64349) is a starlink constellation satellite (v2 mini) launched Jun 13, 2025 by SPXS of US. It operates in LEO, CIRCULAR orbit with a mass of 575.00 kg.

关于 Starlink 34301

正在加载描述...

即将过境

Passes for default location (London). Set your location on the main map for personalized predictions.

高度历史

Loading altitude history...

两行轨道根数

1 64349U 25126F 26159.75067652 .00004519 00000-0 38620-3 0 9994
2 64349 70.0001 164.7896 0003970 264.1251 95.9456 14.98336401 54328
Epoch: Jun 8, 2026 • Age: 12 hours

当前状态

高度 575.3 km
速度 7.58 km/s
星下点 23.89°N, 12.1°W
发射日期 Jun 13, 2025
运行时间 0.9 years
类型 internet

技术详情

分类 Payload
质量 575.00 kg
干质量 530.00 kg
总质量 575.00 kg
长度 0.30 m
直径 4.10 m
跨度 29.00 m
形状 Box + pan
制造商 SPXS
平台类型 Starlink V2MO
阶段状态 In Orbit
所有者/国家 SPXS/US

Most Searched